Starlink 30184

operational
NORAD ID: 57310 Int'l Des: 2023-096 Owner: SPXS Country: US Constellation: starlink
LEOCIRCULAR

Starlink 30184について

説明を読み込み中...

リアルタイム位置

3D地球を読み込み中...

次回通過

高度履歴

Altitude vs Time

uPlot chart will show altitude changes over time

軌道要素

1 57310U 23096W 25260.47679306 .00000099 00000-0 22416-4 0 9990
2 57310 43.0037 58.3202 0001266 270.8478 89.2220 15.02535992120968
Epoch: Sep 17, 2025 • Age: 26 hours

現在のステータス

高度 563.1 km
速度 7.59 km/s
衛星直下点 43.16°N, 56.05°W
打ち上げ日 Jul 10, 2023
運用期間 2.1 years
タイプ internet

技術仕様

分類 Payload
質量 730.00 kg
乾燥質量 700.00 kg
総質量 730.00 kg
長さ 0.30 m
直径 4.10 m
スパン 29.00 m
形状 Box + pan
製造者 SPXS
バスタイプ Starlink V2M
フェーズステータス In Orbit
所有者/国 SPXS/US

大規模コンステレーション

Loading constellations...